TimeMST,TemperatureF,Dew PointF,Humidity,Sea Level PressureIn,VisibilityMPH,Wind Direction,Wind SpeedMPH,Gust SpeedMPH,PrecipitationIn,Events,Conditions,WindDirDegrees,DateUTC
12:15 AM,89.6,53.6,29,29.80,10.0,ESE,8.1,-,N/A,,Scattered Clouds,120,2013-09-17 07:15:00
12:35 AM,87.8,53.6,31,29.80,10.0,ESE,6.9,-,N/A,,Scattered Clouds,110,2013-09-17 07:35:00
12:55 AM,86.0,53.6,33,29.79,10.0,East,6.9,-,N/A,,Clear,90,2013-09-17 07:55:00
1:15 AM,86.0,53.6,33,29.79,10.0,East,8.1,-,N/A,,Clear,90,2013-09-17 08:15:00
1:35 AM,86.0,53.6,33,29.79,10.0,East,5.8,-,N/A,,Clear,90,2013-09-17 08:35:00
1:55 AM,86.0,53.6,33,29.79,10.0,ESE,4.6,-,N/A,,Clear,110,2013-09-17 08:55:00
2:15 AM,86.0,55.4,35,29.78,10.0,East,6.9,-,N/A,,Clear,90,2013-09-17 09:15:00
2:35 AM,86.0,55.4,35,29.78,10.0,East,5.8,-,N/A,,Clear,90,2013-09-17 09:35:00
2:55 AM,87.8,53.6,31,29.78,10.0,East,8.1,-,N/A,,Scattered Clouds,90,2013-09-17 09:55:00
3:15 AM,86.0,53.6,33,29.78,10.0,East,5.8,-,N/A,,Scattered Clouds,80,2013-09-17 10:15:00
3:35 AM,86.0,53.6,33,29.78,10.0,East,5.8,-,N/A,,Scattered Clouds,90,2013-09-17 10:35:00
3:55 AM,86.0,55.4,35,29.78,10.0,East,8.1,-,N/A,,Scattered Clouds,90,2013-09-17 10:55:00
4:15 AM,86.0,55.4,35,29.78,10.0,ENE,4.6,-,N/A,,Mostly Cloudy,60,2013-09-17 11:15:00
4:35 AM,86.0,55.4,35,29.78,10.0,ENE,5.8,-,N/A,,Scattered Clouds,70,2013-09-17 11:35:00
4:47 AM,86.0,57.2,37,29.78,20.0,East,4.6,-,N/A,,Scattered Clouds,80,2013-09-17 11:47:00
4:55 AM,86.0,55.4,35,29.78,10.0,East,5.8,-,N/A,,Scattered Clouds,80,2013-09-17 11:55:00
5:15 AM,84.2,55.4,37,29.78,10.0,ENE,5.8,-,N/A,,Clear,70,2013-09-17 12:15:00
5:47 AM,84.2,57.2,40,29.79,20.0,East,5.8,-,N/A,,Scattered Clouds,100,2013-09-17 12:47:00
6:47 AM,84.2,57.2,40,29.81,45.0,East,3.5,-,N/A,,Mostly Cloudy,80,2013-09-17 13:47:00
7:47 AM,87.8,57.2,35,29.81,45.0,East,10.4,-,N/A,,Scattered Clouds,100,2013-09-17 14:47:00
8:47 AM,93.2,57.2,30,29.81,45.0,East,13.8,-,N/A,,Scattered Clouds,90,2013-09-17 15:47:00
9:47 AM,96.8,55.4,25,29.82,35.0,ESE,17.3,23.0,N/A,,Scattered Clouds,110,2013-09-17 16:47:00
10:47 AM,98.6,57.2,25,29.80,35.0,SE,12.7,21.9,N/A,,Widespread Dust,130,2013-09-17 17:47:00
11:47 AM,98.6,55.4,24,29.78,35.0,ESE,11.5,23.0,N/A,,Widespread Dust,120,2013-09-17 18:47:00
12:52 PM,100.4,55.4,22,29.74,35.0,SSE,11.5,23.0,N/A,,Widespread Dust,150,2013-09-17 19:52:00
1:47 PM,102.2,55.4,21,29.71,35.0,ESE,11.5,23.0,N/A,,Mostly Cloudy,120,2013-09-17 20:47:00
2:49 PM,102.2,51.8,18,29.69,45.0,South,9.2,-,N/A,,Mostly Cloudy,190,2013-09-17 21:49:00
3:48 PM,102.2,53.6,20,29.66,45.0,SSW,5.8,-,N/A,,Mostly Cloudy,210,2013-09-17 22:48:00
4:50 PM,102.2,50.0,17,29.65,45.0,Variable,5.8,-,N/A,,Scattered Clouds,0,2013-09-17 23:50:00
5:47 PM,100.4,50.0,18,29.64,45.0,SSE,5.8,-,N/A,,Scattered Clouds,150,2013-09-18 00:47:00
6:47 PM,98.6,53.6,22,29.63,20.0,Calm,Calm,-,N/A,,Scattered Clouds,0,2013-09-18 01:47:00
7:47 PM,95.0,53.6,25,29.64,20.0,Variable,3.5,-,N/A,,Scattered Clouds,0,2013-09-18 02:47:00
7:55 PM,93.2,53.6,26,29.65,10.0,ESE,4.6,-,N/A,,Clear,120,2013-09-18 02:55:00
8:15 PM,93.2,53.6,26,29.65,10.0,ESE,3.5,-,N/A,,Clear,120,2013-09-18 03:15:00
8:35 PM,93.2,55.4,28,29.66,10.0,Calm,Calm,-,N/A,,Clear,0,2013-09-18 03:35:00
8:47 PM,93.2,57.2,30,29.66,20.0,Calm,Calm,-,N/A,,Partly Cloudy,0,2013-09-18 03:47:00
8:55 PM,93.2,55.4,28,29.66,10.0,Calm,Calm,-,N/A,,Clear,0,2013-09-18 03:55:00
9:15 PM,91.4,57.2,31,29.67,10.0,Calm,Calm,-,N/A,,Clear,0,2013-09-18 04:15:00
9:35 PM,93.2,57.2,30,29.67,10.0,Calm,Calm,-,N/A,,Scattered Clouds,0,2013-09-18 04:35:00
9:47 PM,93.2,59.0,32,29.68,20.0,Calm,Calm,-,N/A,,Scattered Clouds,0,2013-09-18 04:47:00
9:55 PM,91.4,57.2,31,29.68,10.0,East,4.6,-,N/A,,Scattered Clouds,90,2013-09-18 04:55:00
10:15 PM,93.2,57.2,30,29.69,10.0,Calm,Calm,-,N/A,,Mostly Cloudy,0,2013-09-18 05:15:00
10:35 PM,89.6,59.0,36,29.69,10.0,SW,5.8,-,N/A,,Mostly Cloudy,220,2013-09-18 05:35:00
10:47 PM,91.4,59.0,34,29.70,20.0,WSW,5.8,-,N/A,,Scattered Clouds,250,2013-09-18 05:47:00
10:55 PM,89.6,59.0,36,29.70,10.0,SW,5.8,-,N/A,,Scattered Clouds,220,2013-09-18 05:55:00
11:15 PM,87.8,57.2,35,29.70,10.0,WSW,6.9,-,N/A,,Scattered Clouds,250,2013-09-18 06:15:00
11:35 PM,87.8,53.6,31,29.70,10.0,WSW,5.8,-,N/A,,Clear,240,2013-09-18 06:35:00
11:47 PM,87.8,55.4,33,29.70,20.0,Calm,Calm,-,N/A,,Scattered Clouds,0,2013-09-18 06:47:00
11:55 PM,86.0,55.4,35,29.70,10.0,SW,3.5,-,N/A,,Clear,230,2013-09-18 06:55:00